Flag for Germany Weather past 2 weeks in Limburg an der Lahn, Hesse, Germany

Now
59 °F

Broken clouds.


Feels Like: 58 °F
Forecast: 53 / 79 °F
Wind: 7 mph from Northeast

Location: Hessen

Current Time: Jul 25, 2014 at 11:40:44 AM

Latest Report: Jul 25, 2014 at 10:50 AM


Visibility: N/A

Pressure: 30.01 "Hg

Humidity: 94%

Dew point: 57 °F

Location of Limburg an der LahnLocation

Historic Weather in Limburg an der Lahn — Graph

°F

Limburg an der Lahn temperature yesterday

Maximum temperature yesterday: 72 °F (at 1:50 PM)
Minimum temperature yesterday: 57 °F (at 8:20 PM)
Average temperature yesterday: 66 °F

Past Weeks' High & Low Weather Summary

 TemperatureHumidityPressure
High82 °F (Jul 19, 2:50 PM)100% (Jul 10, 10:50 AM)30.24 "Hg (Jul 10, 10:50 AM)
Low55 °F (Jul 14, 7:50 AM)42% (Jul 19, 3:50 PM)29.80 "Hg (Jul 13, 2:50 PM)
Average68 °F74%30.02 "Hg
* Reported Jul 10 10:20 AM — Jul 25 10:20 AM, Limburg an der Lahn, Weather by CustomWeather, © 2014

Note: Actual official high and low records may vary slightly from our data, if they occured in-between our weather recording intervals... More about our weather records

Advertising

Limburg an der Lahn weather history for previous 24 hours

 ConditionsComfort  
Time TempWeatherWind HumidityBarometerVisibility
10:20 AM
Jul 25
59 °FPartly sunny.6 mph94%30.01 "HgN/A
9:50 AM59 °FPartly sunny.6 mph94%29.98 "HgN/A
9:20 AM57 °FMostly cloudy.9 mph94%29.98 "HgN/A
8:50 AM57 °FMostly cloudy.7 mph100%29.98 "HgN/A
8:20 AM57 °FMostly cloudy.8 mph94%29.98 "Hg4 mi
7:50 AM55 °FMostly cloudy.8 mph100%29.98 "Hg4 mi
9:50 PM
Jul 24
59 °FSprinkles. Broken clouds.3 mph94%30.01 "HgN/A
9:20 PM59 °FRain. Broken clouds.1 mph94%30.04 "HgN/A
8:50 PM59 °FLight rain. Broken clouds.5 mph88%30.01 "HgN/A
8:20 PM57 °FThundershowers. Broken clouds.8 mph94%30.01 "HgN/A
7:50 PM61 °FThunderstorms. Broken clouds.1 mph77%30.01 "HgN/A
7:20 PM64 °FThundershowers. Scattered clouds.9 mph68%29.98 "HgN/A
6:50 PM66 °FThundershowers. Scattered clouds.12 mph64%29.98 "HgN/A
6:20 PM68 °FScattered clouds.16 mph64%29.98 "HgN/A
5:50 PM70 °FScattered clouds.7 mph60%29.98 "HgN/A
5:20 PM70 °FPassing clouds.6 mph64%29.98 "HgN/A
4:50 PM70 °FPassing clouds.8 mph60%29.98 "HgN/A
4:20 PM70 °FScattered showers. Scattered clouds.7 mph60%30.01 "HgN/A
3:50 PM70 °FThundershowers. Scattered clouds.9 mph60%29.98 "HgN/A
3:20 PM70 °FThundershowers. Scattered clouds.14 mph60%29.98 "HgN/A
2:50 PM70 °FScattered clouds.10 mph60%30.01 "HgN/A
2:20 PM70 °FScattered clouds.13 mph60%30.01 "HgN/A
1:50 PM72 °FPassing clouds.10 mph57%30.01 "HgN/A
1:20 PM70 °FPassing clouds.14 mph53%30.01 "HgN/A
12:50 PM70 °FPassing clouds.13 mph60%30.01 "HgN/A
12:20 PM68 °FPassing clouds.13 mph64%30.01 "HgN/A
11:50 AM68 °FPassing clouds.12 mph64%30.01 "HgN/A
11:20 AM68 °FPassing clouds.10 mph64%30.01 "HgN/A
Weather by CustomWeather, © 2014

See weather overviewHow to use our weather pages